ONEWEB-0133 (47279 NORAD) Tracking and Keplerian Element Data

This shows tracking and keplerian element data for the satellite.

Feedback or suggestion? Click here.




ElementValue
Catalog47279
NameONEWEB-0133
Epoch Orbit177
Epoch Day62.91667824
Epoch Year2021
RAAN15.7134
Inclination87.6659
Eccentricity0.0013327
Argument of Perigee18.53
Mean Anonmoly328.8511
Mean Motion13.96452232
Decay Rate-0.00029337
L11 47279U 20100X 21062.91667824 -.00029337 00000-0 -21347-1 0 9990
L22 47279 87.6659 15.7134 0013327 18.5300 328.8511 13.96452232 1776

Live tracking and technical data element details for ONEWEB-0133 (NORAD 47279). ONEWEB-0133 can be tracked NOW for your location showing map with azimuth and elevation plus other details from your city location.

Track the satellite on the map from your city or location and see movement details for azimuth, elevation, latitude, longitude, range, height, and movement on the map or in text.







IsCatalogInMostPopularTable: catalog: 47279, numindb: 28
Update: records affected: 1



GetName: 47279 ONEWEB-0133

Hit Count: updated at: Fri, 05 Mar 2021 07:21:42 GMT